Albuquerque Double Eagle, NM

7:26 PM MDT on July 24, 2017 (GMT -0600)
Double Eagle Ii

Weather History for KAEG - February, 2014

Change the Weather History Date:

Tuesday, February 18, 2014

  Actual Average (KABQ) Record (KABQ)
Temperature  
Mean Temperature 46 °F -  
Max Temperature 64 °F 55 °F 75 °F (2016)
Min Temperature 28 °F 29 °F 6 °F (1910)
Degree Days  
Heating Degree Days 19    
Moisture  
Dew Point 13 °F    
Average Humidity 30    
Maximum Humidity 51    
Minimum Humidity 14    
Precipitation  
Precipitation 0.00 in - - ()
Sea Level Pressure  
Sea Level Pressure 30.08 in    
Wind  
Wind Speed 8 mph (WSW)    
Max Wind Speed 13 mph    
Max Gust Speed 17 mph    
Visibility 10 miles    
Events      
Averages and records for this station are not official NWS values.
T = Trace of Precipitation, MM = Missing Value Source: NWS Daily Summary

Daily Weather History Graph

Daily Weather History Graph

Search for Another Location

Airport or City:

Trip Planner

Search our weather history database for the weather conditions in past years. The results will help you decide how hot, cold, wet, or windy it might be!

Date:

Astronomy

Feb. 18, 2014 Rise Set
Actual Time 6:49 AM MST 5:52 PM MST
Civil Twilight 6:24 AM MST 6:18 PM MST
Nautical Twilight 5:54 AM MST 6:48 PM MST
Astronomical Twilight 5:25 AM MST 7:17 PM MST
Moon 9:38 PM MST (2/18) 8:33 AM MST (2/18)
Length of Visible Light 11h 54m
Length of Day
11h 02m
Waning Gibbous, 87% of the Moon is Illuminated
Feb 18
Waning Gibbous
Feb 22
Last Quarter
Mar 1
New
Mar 8
First Quarter
Mar 16
Full

Hourly Weather History & Observations

Time (MST) Temp. Windchill Dew Point Humidity Pressure Visibility Wind Dir Wind Speed Gust Speed Precip Events Conditions
12:15 AM 39.9 °F 33.4 °F 8.1 °F 27% 30.10 in 10.0 mi WSW 10.4 mph - N/A   Clear
12:35 AM 39.2 °F 32.0 °F 7.7 °F 27% 30.10 in 10.0 mi WSW 11.5 mph - N/A   Clear
12:55 AM 36.3 °F 28.9 °F 8.1 °F 31% 30.09 in 10.0 mi WSW 10.4 mph - N/A   Clear
1:15 AM 34.7 °F 28.1 °F 8.6 °F 34% 30.10 in 10.0 mi WSW 8.1 mph - N/A   Clear
1:35 AM 34.9 °F 27.1 °F 9.9 °F 35% 30.10 in 10.0 mi West 10.4 mph - N/A   Clear
1:55 AM 38.3 °F 31.4 °F 11.8 °F 34% 30.09 in 10.0 mi WSW 10.4 mph - N/A   Clear
2:15 AM 35.2 °F 31.2 °F 11.3 °F 37% 30.10 in 10.0 mi WNW 4.6 mph - N/A   Clear
2:35 AM 36.3 °F 28.4 °F 11.7 °F 36% 30.09 in 10.0 mi WSW 11.5 mph - N/A   Clear
2:55 AM 34.7 °F 26.4 °F 11.7 °F 39% 30.08 in 10.0 mi WSW 11.5 mph - N/A   Clear
3:15 AM 36.0 °F 29.0 °F 12.2 °F 38% 30.07 in 10.0 mi West 9.2 mph - N/A   Clear
3:35 AM 37.0 °F 33.3 °F 13.1 °F 37% 30.08 in 10.0 mi NW 4.6 mph - N/A   Clear
3:55 AM 36.1 °F - 13.1 °F 39% 30.08 in 10.0 mi Calm Calm - N/A   Clear
4:15 AM 41.0 °F - 13.6 °F 33% 30.08 in 10.0 mi Calm Calm - N/A   Clear
4:35 AM 37.9 °F 35.5 °F 13.3 °F 36% 30.08 in 10.0 mi SSW 3.5 mph - N/A   Clear
5:55 AM 30.2 °F 21.3 °F 12.2 °F 47% 30.09 in 10.0 mi SW 10.4 mph - N/A   Clear
6:49 AM 28.4 °F 19.7 °F 12.2 °F 51% 30.11 in 10.0 mi SSW 9.2 mph - N/A   Clear
7:48 AM 42.8 °F 37.5 °F 19.4 °F 39% 30.13 in 10.0 mi SW 9.2 mph - N/A   Clear
8:48 AM 50.0 °F - 19.4 °F 30% 30.16 in 10.0 mi Variable 5.8 mph - N/A   Clear
9:48 AM 55.4 °F - 21.2 °F 26% 30.15 in 10.0 mi West 4.6 mph - N/A   Partly Cloudy
11:49 AM 60.8 °F - 19.4 °F 20% 30.12 in 10.0 mi NW 11.5 mph 17.3 mph N/A   Partly Cloudy
12:55 PM 62.6 °F - 17.6 °F 18% 30.08 in 10.0 mi WNW 11.5 mph 17.3 mph N/A   Partly Cloudy
1:48 PM 64.4 °F - 15.8 °F 15% 30.06 in 10.0 mi West 12.7 mph 17.3 mph N/A   Scattered Clouds
2:50 PM 64.4 °F - 14.0 °F 14% 30.04 in 10.0 mi West 9.2 mph 16.1 mph N/A   Scattered Clouds
3:50 PM 64.4 °F - 15.8 °F 15% 30.03 in 10.0 mi SSW 6.9 mph - N/A   Mostly Cloudy
5:48 PM 57.2 °F - 12.2 °F 17% 30.04 in 10.0 mi Variable 4.6 mph - N/A   Mostly Cloudy
6:48 PM 46.4 °F 43.5 °F 10.4 °F 23% 30.06 in 10.0 mi Variable 5.8 mph - N/A   Mostly Cloudy
7:48 PM 44.6 °F 41.4 °F 10.4 °F 25% 30.06 in 10.0 mi Variable 5.8 mph - N/A   Clear
8:48 PM 46.4 °F - 12.2 °F 25% 30.06 in 10.0 mi Calm Calm - N/A   Clear
9:15 PM 48.2 °F - 12.0 °F 23% 30.06 in 10.0 mi West 4.6 mph - N/A   Clear
9:35 PM 45.0 °F - 13.1 °F 28% 30.06 in 10.0 mi Calm Calm - N/A   Clear
9:48 PM 44.6 °F - 12.2 °F 27% 30.06 in 10.0 mi Calm Calm - N/A   Clear
9:55 PM 46.9 °F - 12.9 °F 25% 30.06 in 10.0 mi Calm Calm - N/A   Clear
10:15 PM 48.6 °F - 12.2 °F 23% 30.05 in 10.0 mi Calm Calm - N/A   Clear
10:55 PM 41.9 °F 40.0 °F 15.4 °F 34% 30.04 in 10.0 mi South 3.5 mph - N/A   Clear
11:15 PM 42.3 °F 38.6 °F 15.3 °F 34% 30.04 in 10.0 mi SW 5.8 mph - N/A   Clear
11:35 PM 43.3 °F 41.7 °F 14.9 °F 32% 30.03 in 10.0 mi South 3.5 mph - N/A   Clear
11:55 PM 43.3 °F 39.2 °F 13.1 °F 29% 30.03 in 10.0 mi WSW 6.9 mph - N/A   Clear